This demonstration page uses our WeatherBlox Daily Observations layout. Learn more.

Left ArrowRight Arrow

Hourly Observations for January 2, 2020

Temp ( °F °C ) Dew Point ( °F °C ) Humidity (%) Winds ( mph kmh ) Pressure ( in mb ) Visibility ( mi km ) Precip ( " mm )
12:53 am 00:53 Cloudy 33 0.6 32 0 96 96 SW 10 17 29.50 999 10 16 0.00 0.00
1:53 am 01:53 Cloudy 35 1.7 32 0 89 89 SW 16 26 29.50 999 10 16 0.00 0.00
2:53 am 02:53 Cloudy 35 1.7 32 0 89 89 SW 15 24 29.52 1000 10 16 0.00 0.00
3:53 am 03:53 Cloudy 35 1.7 31 -0.6 85 85 SSW 14 22 29.54 1000 10 16 0.00 0.00
4:53 am 04:53 Mostly Cloudy 33 0.6 29 -1.7 85 85 SW 7 11 29.53 1000 10 16 0.00 0.00
5:53 am 05:53 Cloudy 33 0.6 28 -2.2 82 82 SW 6 9 29.54 1000 10 16 0.00 0.00
6:53 am 06:53 Cloudy 35 1.7 28 -2.2 76 76 SSW 12 19 29.54 1000 10 16 0.00 0.00
7:53 am 07:53 Cloudy 36 2.2 28 -2.2 73 73 SW 12 19 29.54 1000 10 16 0.00 0.00
8:53 am 08:53 Cloudy 35 1.7 28 -2.2 76 76 SW 13 20 29.56 1001 10 16 0.00 0.00
9:53 am 09:53 Cloudy 35 1.7 28 -2.2 76 76 SW 10 17 29.59 1002 10 16 0.00 0.00
10:53 am 10:53 Cloudy 36 2.2 30 -1.1 79 79 SSW 13 20 29.60 1002 10 16 0.00 0.00
11:53 am 11:53 Sunny 38 3.3 29 -1.7 70 70 WNW 22 35 29.60 1002 10 16 0.00 0.00
12:45 pm 12:45 Mostly Cloudy 34 1.1 28 -2.2 79 79 NW 24 39 29.69 1005 10 16 0.00 0.00
12:53 pm 12:53 Mostly Cloudy 34 1.1 27 -2.8 76 76 NW 23 37 29.67 1005 10 16 0.00 0.00
1:12 pm 13:12 Cloudy 34 1 27 -3 75 75 NW 17 28 29.72 1006 10 16 0.00 0.00
1:37 pm 13:37 Cloudy 33 0.6 24 -4.4 70 70 NNW 22 35 29.75 1008 10 16 0.00 0.00
1:53 pm 13:53 Cloudy 32 0 24 -4.4 73 73 NNW 16 26 29.74 1007 10 16 0.00 0.00
2:41 pm 14:41 Cloudy 31 -0.6 23 -5 72 72 NNW 12 19 29.86 1011 10 16 0.00 0.00
2:53 pm 14:53 Cloudy 31 -0.6 22 -5.6 69 69 NNW 15 24 29.83 1010 10 16 0.00 0.00
3:36 pm 15:36 Cloudy 31 -0.6 22 -5.6 69 69 N 18 30 29.89 1012 10 16 0.00 0.00
3:53 pm 15:53 Cloudy 30 -1.1 21 -6.1 69 69 NNW 17 28 29.87 1011 10 16 0.00 0.00
4:53 pm 16:53 Cloudy 29 -1.7 22 -5.6 75 75 W 6 9 29.91 1013 10 16 0.00 0.00
5:53 pm 17:53 Cloudy 29 -1.7 22 -5.6 75 75 WSW 7 11 29.94 1014 10 16 0.00 0.00
6:53 pm 18:53 Cloudy 29 -1.7 23 -5 78 78 SW 9 15 29.96 1015 10 16 0.00 0.00
7:53 pm 19:53 Cloudy 28 -2.2 23 -5 81 81 SW 15 24 29.98 1015 10 16 0.00 0.00
8:53 pm 20:53 Cloudy 26 -3.3 23 -5 88 88 SW 10 17 29.99 1016 10 16 0.00 0.00
9:53 pm 21:53 Cloudy 26 -3.3 22 -5.6 84 84 SW 14 22 30.01 1016 10 16 0.00 0.00
10:53 pm 22:53 Mostly Cloudy 24 -4.4 21 -6.1 88 88 WSW 8 13 30.02 1017 10 16 0.00 0.00
11:53 pm 23:53 Clear 23 -5 21 -6.1 92 92 NW 5 7 30.01 1016 10 16 0.00 0.00

Powered by AerisWeather